Location: Gleizolles
(44.4833°N, 6.7667°E)
Time: 21:20:41
(UTC+00:00)

A-11 Canister half - Pass Details

Date: 03 July 2024
Orbit: 1524 x 1684 km, 47.3° (Epoch: 18 July)

Event Time Altitude Azimuth Distance (km) Brightness Sun altitude
Rises 18:00:13 0° 283° (WNW) 4,676 13.6 11.9°
Reaches altitude 10° 18:07:40 10° 244° (WSW) 3,687 11.7 10.7°
Maximum altitude 18:08:31 10° 239° (WSW) 3,676 11.6 10.6°
Drops below altitude 10° 18:09:21 10° 233° (SW) 3,689 11.5 10.4°
Sets 18:16:53 0° 194° (SSW) 4,690 11.5 9.2°
